Regional Weather Roundup
Issued by NWS

Home | Current Version | Previous Version | Text Only | Print | Product List | Glossary On
Versions: 1 2 3 4 5 6 7 8 9 10 11 12 13 14 15 16 17 18 19 20 21 22 23 24 25 26 27 28 29 30 31 32 33 34 35 36 37 38 39 40 41 42 43 44 45 46 47 48 49 50
000
ASUS46 KPQR 221810
RWROR

OREGON REGIONAL WEATHER ROUNDUP
NATIONAL WEATHER SERVICE PORTLAND OR
1000 AM PST MON JAN 22 2018

NOTE: "FAIR" INDICATES FEW OR NO CLOUDS BELOW 12,000 FEET WITH
NO SIGNIFICANT WEATHER AND/OR OBSTRUCTIONS TO VISIBILITY.

ORZ001>013-221900-
NORTHWEST OREGON


CITY           SKY/WX    TMP DP  RH WIND       PRES   REMARKS
ASTORIA        MOSUNNY   45  43  93 SE5       30.26R
6HR MIN TEMP:  40; 6HR MAX TEMP:  46; 6HR PCP:  0.07;

TILLAMOOK      PTSUNNY   45  43  93 CALM      30.30R
NEWPORT        MOSUNNY   46  43  87 SW5       30.33R
PORTLAND       PTSUNNY   46  42  86 SW5       30.31R
6HR MIN TEMP:  42; 6HR MAX TEMP:  46; 6HR PCP:  0.10;

VANCOUVER WA   LGT RAIN  46  42  86 W5        30.31R
6HR MIN TEMP:  44; 6HR MAX TEMP:  46; 6HR PCP:  0.10;

SCAPPOOSE      PTSUNNY   44  42  93 CALM      30.30R
6HR MIN TEMP:  41; 6HR MAX TEMP:  44; 6HR PCP:  0.03;

HILLSBORO      PTSUNNY   43  41  93 E3        30.30R
6HR MIN TEMP:  41; 6HR MAX TEMP:  44; 6HR PCP:  0.13;

AURORA         CLOUDY    46  42  86 S8G18     30.32R
6HR MIN TEMP:  44; 6HR MAX TEMP:  46; 6HR PCP:  0.08;

MCMINNVILLE    CLOUDY    46  43  89 CALM      30.31R
6HR MIN TEMP:  41; 6HR MAX TEMP:  46; 6HR PCP:  0.15;

SALEM          PTSUNNY   45  41  86 S15       30.31R
6HR MIN TEMP:  43; 6HR MAX TEMP:  45; 6HR PCP:  0.10;

CORVALLIS      CLOUDY    45  42  89 S9        30.34R
EUGENE         CLOUDY    45  42  89 S9        30.34R
6HR MIN TEMP:  38; 6HR MAX TEMP:  45; 6HR PCP:  0.02;

$$

ORZ021-028-221900-
SOUTHWEST OREGON


CITY           SKY/WX    TMP DP  RH WIND       PRES   REMARKS
NORTH BEND     CLOUDY    46  44  93 S9        30.36R
BROOKINGS      MOSUNNY   46  42  86 VRB3      30.37R
ROSEBURG       CLOUDY    42  40  92 SE3       30.36R
6HR MIN TEMP:  38; 6HR MAX TEMP:  42;

SEXTON SUMMIT  FOG       32  31  96 VRB5      30.27R VSB 1/4
6HR MIN TEMP:  31; 6HR MAX TEMP:  32;

GRANTS PASS    CLOUDY    39  39 100 CALM      30.41R FOG
MEDFORD        CLOUDY    39  39 100 CALM      30.36R FOG
6HR MIN TEMP:  37; 6HR MAX TEMP:  39;

$$

ORZ014>016-041-221900-
COLUMBIA GORGE


CITY           SKY/WX    TMP DP  RH WIND       PRES   REMARKS
TROUTDALE      CLOUDY    47  42  83 SW12      30.31R
6HR MIN TEMP:  37; 6HR MAX TEMP:  47; 6HR PCP:  0.07;

HOOD RIVER     CLOUDY    39  37  93 CALM      30.27R
THE DALLES     CLOUDY    36  35  96 CALM      30.28R FOG
6HR MIN TEMP:  34; 6HR MAX TEMP:  36; 6HR PCP: TRACE;

$$

ORZ029>031-041-044-049-050-061>064-502-503-505>511-221900-
EASTERN OREGON


CITY           SKY/WX    TMP DP  RH WIND       PRES   REMARKS
MADRAS         PTSUNNY   41  41 100 S10       30.25R
REDMOND        CLOUDY    39  30  70 NE6       30.24R
6HR MIN TEMP:  24; 6HR MAX TEMP:  40;

BEND           MOSUNNY   39  27  60 SW18      30.24R WCI  30
PRINEVILLE     CLOUDY    37  28  70 CALM      30.25R
KLAMATH FALLS  PTSUNNY   35  28  75 CALM      30.28R
6HR MIN TEMP:  29; 6HR MAX TEMP:  35;

LAKEVIEW       PTSUNNY   36  30  79 SE7       30.27R
HERMISTON      CLOUDY    41  36  82 NW3       30.23R
6HR MIN TEMP:  32; 6HR MAX TEMP:  41;

PENDLETON      PTSUNNY   40  32  73 S8        30.22R
6HR MIN TEMP:  31; 6HR MAX TEMP:  40;

JOHN DAY       FOG       33  33  97 CALM      30.24R VSB<1/4
MEACHAM        MOSUNNY   29  29 100 CALM      30.18R
6HR MIN TEMP:  23; 6HR MAX TEMP:  31; 6HR PCP:  0.01;

LA GRANDE      SUNNY     37  33  85 CALM      30.23R
6HR MIN TEMP:  30; 6HR MAX TEMP:  40; 6HR PCP: TRACE;

BAKER CITY     FOG       33  30  88 CALM      30.22R VSB 1/4
6HR MIN TEMP:  26; 6HR MAX TEMP:  34; 6HR PCP:  0.04;

BURNS          MOSUNNY   27  24  89 CALM      30.25R
6HR MIN TEMP:  17; 6HR MAX TEMP:  30; 6HR PCP:  0.01;

ROME             N/A     42  31  64 SW9       30.22R
6HR MIN TEMP:  33; 6HR MAX TEMP:  42;

ONTARIO        CLOUDY    41  37  86 S5        30.26R
6HR MIN TEMP:  37; 6HR MAX TEMP:  41; 6HR PCP: TRACE;

$$



USA.gov is the U.S. government's official web portal to all federal, state and local government web resources and services.